Lebanon, NH

3:51 AM EDT on April 28, 2017 (GMT -0400)
Lebanon Municipal

Weather History for KLEB - September, 2013

Change the Weather History Date:

Thursday, September 19, 2013

  Actual Average Record
Temperature  
Mean Temperature 60 °F -  
Max Temperature 78 °F 70 °F 86 °F (1985)
Min Temperature 44 °F 47 °F 32 °F (2014)
Degree Days  
Heating Degree Days 4    
Growing Degree Days 10 (Base 50)    
Moisture  
Dew Point 46 °F    
Average Humidity 82    
Maximum Humidity 96    
Minimum Humidity 27    
Precipitation  
Precipitation 0.01 in - - ()
Sea Level Pressure  
Sea Level Pressure 30.12 in    
Wind  
Wind Speed 0 mph (NW)    
Max Wind Speed 4 mph    
Max Gust Speed -    
Visibility 5 miles    
Events Fog    
Averages and records for this station are not official NWS values.
T = Trace of Precipitation, MM = Missing Value Source: NWS Daily Summary

Daily Weather History Graph

Daily Weather History Graph

Search for Another Location

Airport or City:

Trip Planner

Search our weather history database for the weather conditions in past years. The results will help you decide how hot, cold, wet, or windy it might be!

Date:

Astronomy

Sep. 19, 2013 Rise Set
Actual Time 6:33 AM EDT 6:51 PM EDT
Civil Twilight 6:04 AM EDT 7:20 PM EDT
Nautical Twilight 5:30 AM EDT 7:53 PM EDT
Astronomical Twilight 4:56 AM EDT 8:28 PM EDT
Moon 6:45 PM EDT (9/19) 6:40 AM EDT (9/19)
Length of Visible Light 13h 15m
Length of Day
12h 18m
Full, 100% of the Moon is Illuminated
Sep 19
Full
Sep 26
Last Quarter
Oct 4
New
Oct 11
First Quarter
Oct 18
Full

Hourly Weather History & Observations

Time (EDT) Temp. Dew Point Humidity Pressure Visibility Wind Dir Wind Speed Gust Speed Precip Events Conditions
12:04 AM 44.6 °F 42.8 °F 93% 30.16 in 4.0 mi Calm Calm - N/A   Clear
12:53 AM 46.0 °F 42.1 °F 86% 30.14 in 10.0 mi Calm Calm - N/A   Clear
1:21 AM 44.6 °F 41.0 °F 87% 30.15 in 9.0 mi Calm Calm - N/A   Scattered Clouds
1:27 AM 44.6 °F 39.2 °F 81% 30.15 in 2.5 mi Calm Calm - N/A   Mostly Cloudy
1:38 AM 46.4 °F 44.6 °F 93% 30.15 in 3.0 mi Calm Calm - N/A   Mostly Cloudy
1:45 AM 46.4 °F 44.6 °F 93% 30.16 in 1.5 mi Calm Calm - N/A   Overcast
1:53 AM 46.0 °F 44.1 °F 93% 30.15 in 0.2 mi Calm Calm - N/A Fog Fog
2:17 AM 46.4 °F 44.6 °F 93% 30.15 in 1.0 mi Calm Calm - N/A   Mist
2:26 AM 44.6 °F 42.8 °F 93% 30.15 in 0.2 mi Calm Calm - N/A Fog Fog
2:38 AM 44.6 °F 42.8 °F 93% 30.15 in 0.5 mi Calm Calm - N/A Fog Fog
2:53 AM 45.0 °F 43.0 °F 93% 30.14 in 1.0 mi Calm Calm - N/A   Mist
3:02 AM 46.4 °F 44.6 °F 93% 30.15 in 0.2 mi Calm Calm - N/A Fog Fog
3:53 AM 46.0 °F 44.1 °F 93% 30.14 in 0.2 mi Calm Calm - N/A Fog Fog
4:25 AM 46.4 °F 44.6 °F 93% 30.15 in 0.2 mi Calm Calm - N/A Fog Fog
4:53 AM 46.0 °F 44.1 °F 93% 30.14 in 0.2 mi Calm Calm - N/A Fog Fog
5:53 AM 46.0 °F 44.1 °F 93% 30.15 in 0.2 mi Calm Calm - 0.01 in Fog Fog
6:53 AM 46.0 °F 44.1 °F 93% 30.17 in 0.2 mi Calm Calm - N/A Fog Fog
7:53 AM 46.0 °F 44.1 °F 93% 30.17 in 0.2 mi Calm Calm - N/A Fog Fog
8:02 AM 46.4 °F 44.6 °F 93% 30.16 in 0.2 mi Calm Calm - N/A Fog Fog
8:29 AM 46.4 °F 44.6 °F 93% 30.16 in 0.2 mi Calm Calm - N/A Fog Fog
8:53 AM 46.9 °F 45.0 °F 93% 30.17 in 0.2 mi Calm Calm - N/A Fog Fog
9:24 AM 48.2 °F 46.4 °F 93% 30.16 in 0.5 mi Calm Calm - N/A Fog Fog
9:28 AM 48.2 °F 46.4 °F 93% 30.16 in 1.0 mi Calm Calm - N/A   Overcast
9:38 AM 48.2 °F 46.4 °F 93% 30.17 in 0.5 mi NW 3.5 mph - N/A Fog Fog
9:53 AM 48.0 °F 46.0 °F 93% 30.17 in 1.0 mi Calm Calm - N/A   Overcast
10:32 AM 51.8 °F 46.4 °F 82% 30.16 in 8.0 mi Calm Calm - N/A   Scattered Clouds
10:53 AM 57.0 °F 48.9 °F 74% 30.14 in 10.0 mi Calm Calm - N/A   Scattered Clouds
11:53 AM 64.9 °F 48.9 °F 56% 30.13 in 10.0 mi WNW 3.5 mph - N/A   Clear
12:53 PM 70.0 °F 46.0 °F 42% 30.11 in 10.0 mi Calm Calm - N/A   Clear
1:53 PM 73.0 °F 48.0 °F 41% 30.07 in 10.0 mi Calm Calm - N/A   Clear
2:53 PM 75.9 °F 39.9 °F 27% 30.04 in 10.0 mi Calm Calm - N/A   Clear
3:53 PM 77.0 °F 43.0 °F 30% 30.03 in 10.0 mi Calm Calm - N/A   Clear
4:53 PM 77.0 °F 43.0 °F 30% 30.02 in 10.0 mi Calm Calm - N/A   Clear
5:53 PM 69.1 °F 55.9 °F 63% 30.02 in 10.0 mi Calm Calm - N/A   Clear
6:53 PM 61.0 °F 55.9 °F 83% 30.04 in 10.0 mi Calm Calm - N/A   Clear
7:53 PM 55.0 °F 51.1 °F 86% 30.06 in 10.0 mi Calm Calm - N/A   Clear
8:53 PM 53.1 °F 50.0 °F 89% 30.07 in 10.0 mi Calm Calm - N/A   Clear
9:53 PM 52.0 °F 48.9 °F 89% 30.08 in 10.0 mi Calm Calm - N/A   Clear
10:53 PM 50.0 °F 48.9 °F 96% 30.07 in 10.0 mi Calm Calm - N/A   Clear
11:53 PM 48.9 °F 46.0 °F 90% 30.07 in 9.0 mi Calm Calm - N/A   Clear